�������l�o���
Date,Time,MP-1(��Sv/h),MP-2(��Sv/h),MP-3(��Sv/h),MP-4(��Sv/h),MP-5(��Sv/h),MP-6(��Sv/h),MP-7(��Sv/h),MP-8(��Sv/h),����,����(m/s),���J
2018/02/05,00:00,0.863,1.437,0.899,1.649,1.152,0.483,0.855,0.829,�k��,2.5,��
2018/02/05,00:10,0.863,1.436,0.900,1.648,1.153,0.482,0.856,0.829,�k�k��,2.6,��
2018/02/05,00:20,0.862,1.438,0.901,1.651,1.152,0.481,0.858,0.827,�k��,5.3,��
2018/02/05,00:30,0.863,1.438,0.900,1.649,1.155,0.483,0.856,0.828,�k��,6.8,��
2018/02/05,00:40,0.862,1.437,0.902,1.652,1.154,0.481,0.856,0.828,�k��,8.3,��
2018/02/05,00:50,0.864,1.438,0.899,1.650,1.155,0.481,0.856,0.827,�k��,7.8,��
2018/02/05,01:00,0.864,1.437,0.902,1.647,1.153,0.483,0.857,0.828,�k��,7.5,��
2018/02/05,01:10,0.864,1.440,0.902,1.650,1.154,0.481,0.858,0.829,�k�k��,6.1,��
2018/02/05,01:20,0.864,1.436,0.900,1.650,1.152,0.480,0.856,0.828,�k�k��,6.1,��
2018/02/05,01:30,0.862,1.437,0.899,1.650,1.154,0.482,0.857,0.829,�k��,5.5,��
2018/02/05,01:40,0.860,1.437,0.898,1.647,1.152,0.483,0.856,0.828,�k��,5.5,��
2018/02/05,01:50,0.861,1.435,0.901,1.648,1.155,0.482,0.856,0.829,�k��,6.6,��
2018/02/05,02:00,0.862,1.437,0.901,1.650,1.151,0.482,0.858,0.828,�k�k��,5.4,��
2018/02/05,02:10,0.860,1.437,0.898,1.648,1.153,0.482,0.855,0.826,�k��,6.2,��
2018/02/05,02:20,0.863,1.436,0.902,1.649,1.153,0.482,0.856,0.830,�k��,6.9,��
2018/02/05,02:30,0.859,1.436,0.898,1.650,1.152,0.480,0.855,0.829,�k��,8.7,��
2018/02/05,02:40,0.859,1.435,0.899,1.649,1.152,0.480,0.856,0.827,�k��,8.0,��
2018/02/05,02:50,0.864,1.436,0.899,1.648,1.153,0.481,0.859,0.829,�k��,9.2,��
2018/02/05,03:00,0.863,1.438,0.900,1.648,1.150,0.480,0.857,0.828,�k�k��,8.8,��
2018/02/05,03:10,0.863,1.440,0.900,1.652,1.154,0.480,0.858,0.827,�k�k��,6.5,��
2018/02/05,03:20,0.861,1.436,0.899,1.649,1.151,0.480,0.857,0.828,�k�k��,8.4,��
2018/02/05,03:30,0.860,1.436,0.898,1.647,1.150,0.479,0.858,0.828,�k�k��,8.8,��
2018/02/05,03:40,0.860,1.436,0.897,1.649,1.150,0.480,0.857,0.828,�k�k��,8.1,��
2018/02/05,03:50,0.859,1.437,0.897,1.650,1.152,0.481,0.857,0.832,�k�k��,8.1,��
2018/02/05,04:00,0.861,1.434,0.897,1.647,1.151,0.479,0.858,0.830,�k��,7.5,��
2018/02/05,04:10,0.860,1.437,0.896,1.649,1.151,0.479,0.857,0.829,�k��,5.9,��
2018/02/05,04:20,0.861,1.436,0.898,1.649,1.148,0.479,0.856,0.826,�k��,5.1,��
2018/02/05,04:30,0.863,1.434,0.899,1.652,1.151,0.480,0.857,0.828,�k��,4.1,��
2018/02/05,04:40,0.861,1.437,0.900,1.647,1.152,0.480,0.858,0.829,�k��,4.3,��
2018/02/05,04:50,0.861,1.437,0.899,1.651,1.150,0.483,0.857,0.829,�k��,5.0,��
2018/02/05,05:00,0.859,1.435,0.900,1.649,1.149,0.482,0.857,0.828,�k��,6.2,��
2018/02/05,05:10,0.860,1.434,0.898,1.650,1.150,0.482,0.857,0.829,�k��,4.8,��
2018/02/05,05:20,0.858,1.436,0.900,1.649,1.151,0.481,0.859,0.829,�k��,2.9,��
2018/02/05,05:30,0.859,1.434,0.900,1.649,1.149,0.480,0.856,0.827,�k�k��,5.1,��
2018/02/05,05:40,0.861,1.436,0.900,1.649,1.149,0.480,0.858,0.828,�k��,3.6,��
2018/02/05,05:50,0.858,1.436,0.898,1.650,1.149,0.480,0.855,0.827,�k�k��,1.8,��
2018/02/05,06:00,0.860,1.435,0.899,1.649,1.151,0.480,0.856,0.827,�k��,1.2,��
2018/02/05,06:10,0.861,1.432,0.897,1.647,1.151,0.479,0.856,0.830,��,3.0,��
2018/02/05,06:20,0.859,1.435,0.897,1.650,1.148,0.480,0.855,0.828,���k��,3.7,��
2018/02/05,06:30,0.859,1.433,0.897,1.647,1.149,0.478,0.856,0.827,���k��,3.4,��
2018/02/05,06:40,0.857,1.434,0.898,1.649,1.150,0.480,0.856,0.829,���k��,4.5,��
2018/02/05,06:50,0.857,1.434,0.899,1.648,1.147,0.480,0.855,0.827,���k��,4.7,��
2018/02/05,07:00,0.859,1.435,0.898,1.649,1.150,0.479,0.855,0.827,���k��,5.3,��
2018/02/05,07:10,0.859,1.435,0.899,1.647,1.146,0.479,0.856,0.828,���k��,8.0,��
2018/02/05,07:20,0.858,1.436,0.897,1.649,1.147,0.479,0.857,0.828,���k��,7.6,��
2018/02/05,07:30,0.856,1.435,0.899,1.648,1.150,0.480,0.854,0.828,���k��,5.0,��
2018/02/05,07:40,0.860,1.435,0.898,1.647,1.149,0.480,0.858,0.827,���k��,5.3,��
2018/02/05,07:50,0.859,1.435,0.897,1.646,1.149,0.481,0.855,0.829,�k��,4.8,��
2018/02/05,08:00,0.861,1.433,0.900,1.650,1.148,0.481,0.858,0.826,�k��,2.6,��
2018/02/05,08:10,0.860,1.436,0.898,1.647,1.148,0.482,0.857,0.830,�k��,3.7,��
2018/02/05,08:20,0.859,1.432,0.898,1.648,1.147,0.480,0.857,0.828,�k��,4.7,��
2018/02/05,08:30,0.862,1.432,0.899,1.650,1.152,0.480,0.857,0.828,�k��,4.9,��
2018/02/05,08:40,0.863,1.433,0.898,1.647,1.149,0.479,0.856,0.829,�k�k��,5.8,��
2018/02/05,08:50,0.862,1.433,0.901,1.650,1.148,0.479,0.855,0.830,�k��,3.9,��
2018/02/05,09:00,0.863,1.436,0.902,1.649,1.151,0.481,0.856,0.827,�k��,5.2,��
2018/02/05,09:10,0.863,1.432,0.902,1.648,1.148,0.481,0.858,0.828,�k��,5.3,��
2018/02/05,09:20,0.863,1.436,0.900,1.648,1.152,0.480,0.857,0.830,�k��,7.5,��
2018/02/05,09:30,0.864,1.435,0.899,1.649,1.150,0.480,0.857,0.828,�k��,5.8,��
2018/02/05,09:40,0.863,1.435,0.902,1.651,1.150,0.481,0.857,0.829,�k��,6.8,��
2018/02/05,09:50,0.863,1.437,0.899,1.653,1.153,0.481,0.859,0.829,���k��,6.4,��
2018/02/05,10:00,0.863,1.437,0.900,1.649,1.150,0.481,0.856,0.828,���k��,6.5,��
2018/02/05,10:10,0.865,1.439,0.901,1.652,1.154,0.481,0.858,0.829,���k��,7.5,��
2018/02/05,10:20,0.862,1.440,0.902,1.653,1.153,0.480,0.857,0.829,�k��,8.2,��
2018/02/05,10:30,0.865,1.434,0.902,1.653,1.155,0.481,0.858,0.829,�k��,6.8,��
2018/02/05,10:40,0.863,1.436,0.903,1.652,1.155,0.481,0.857,0.830,�k��,8.9,��
2018/02/05,10:50,0.862,1.437,0.902,1.651,1.156,0.483,0.858,-,���k��,8.1,��
2018/02/05,11:00,0.861,1.437,0.904,1.652,1.156,0.483,0.857,-,���k��,6.5,��
2018/02/05,11:10,0.861,1.435,0.902,1.654,1.158,0.483,0.857,-,���k��,6.9,��
2018/02/05,11:20,0.860,1.437,0.901,1.654,1.159,0.482,0.858,-,��,4.8,��
2018/02/05,11:30,0.859,1.437,0.904,1.654,1.159,0.482,0.858,-,��,3.8,��
2018/02/05,11:40,0.857,1.438,0.905,1.655,1.159,0.484,0.858,-,���k��,2.6,��
2018/02/05,11:50,0.862,1.438,0.903,1.653,1.159,0.483,0.858,-,���k��,4.5,��
2018/02/05,12:00,0.865,1.435,0.904,1.655,1.160,0.485,0.855,-,���k��,4.7,��
2018/02/05,12:10,0.866,1.436,0.904,1.655,1.161,0.482,0.855,-,���k��,4.5,��
2018/02/05,12:20,0.868,1.439,0.904,1.656,1.158,0.484,0.856,-,���k��,5.5,��
2018/02/05,12:30,0.867,1.439,0.904,1.653,1.159,0.483,0.855,-,�k��,6.2,��
2018/02/05,12:40,0.868,1.442,0.906,1.656,1.157,0.483,0.855,-,�k��,6.3,��
2018/02/05,12:50,0.867,1.443,0.905,1.657,1.160,0.485,0.857,-,�k��,5.7,��
2018/02/05,13:00,0.869,1.440,0.906,1.657,1.159,0.484,0.858,-,���k��,3.7,��
2018/02/05,13:10,0.867,1.440,0.903,1.657,1.161,0.482,0.856,-,��,5.0,��
2018/02/05,13:20,0.867,1.438,0.903,1.655,1.163,0.483,0.856,-,���k��,5.0,��
2018/02/05,13:30,0.868,1.438,0.906,1.657,1.161,0.483,0.856,-,���k��,5.3,��
2018/02/05,13:40,0.866,1.441,0.906,1.657,1.162,0.482,0.857,-,���k��,4.6,��
2018/02/05,13:50,0.866,1.440,0.904,1.658,1.161,0.483,0.857,-,�k��,4.3,��
2018/02/05,14:00,0.868,1.441,0.904,1.659,1.162,0.484,0.858,-,���k��,3.6,��
2018/02/05,14:10,0.866,1.440,0.906,1.656,1.164,0.483,0.860,-,���k��,3.2,��
2018/02/05,14:20,0.868,1.440,0.904,1.657,1.160,0.483,0.858,-,���k��,3.6,��
2018/02/05,14:30,0.868,1.441,0.904,1.657,1.161,0.484,0.858,-,�k��,3.7,��
2018/02/05,14:40,0.868,1.441,0.906,1.656,1.162,0.484,0.858,-,�k��,3.1,��
2018/02/05,14:50,0.868,1.438,0.905,1.656,1.163,0.484,0.860,0.830,�k�k��,3.4,��
2018/02/05,15:00,0.869,1.442,0.904,1.659,1.164,0.484,0.857,0.829,���쓌,2.3,��
2018/02/05,15:10,0.868,1.443,0.906,1.655,1.162,0.482,0.860,0.829,��쓌,7.9,�L
2018/02/05,15:20,0.866,1.445,0.903,1.655,1.164,0.483,0.858,0.830,��쓌,7.5,�L
2018/02/05,15:30,0.865,1.444,0.902,1.657,1.161,0.482,0.858,0.831,�쓌,4.1,�L
2018/02/05,15:40,0.869,1.441,0.905,1.654,1.160,0.483,0.859,0.829,�쓌,2.9,�L
2018/02/05,15:50,0.868,1.443,0.904,1.659,1.160,0.483,0.859,0.830,��,2.6,�L
2018/02/05,16:00,0.865,1.444,0.905,1.656,1.160,0.485,0.859,0.831,��,4.0,�L
2018/02/05,16:10,0.868,1.448,0.905,1.657,1.161,0.484,0.860,0.829,���k��,3.8,�L
2018/02/05,16:20,0.866,1.445,0.905,1.656,1.162,0.485,0.857,0.831,���k��,3.0,�L
2018/02/05,16:30,0.865,1.445,0.906,1.656,1.162,0.484,0.858,0.829,�k��,3.6,�L
2018/02/05,16:40,0.865,1.446,0.906,1.657,1.164,0.484,0.858,0.831,���k��,3.4,��
2018/02/05,16:50,0.864,1.445,0.905,1.654,1.163,0.484,0.857,0.830,��,2.9,��
2018/02/05,17:00,0.864,1.445,0.904,1.657,1.162,0.483,0.859,0.829,��,2.6,�L
2018/02/05,17:10,0.861,1.444,0.904,1.657,1.163,0.483,0.859,0.829,��,2.3,�L
2018/02/05,17:20,0.864,1.443,0.905,1.654,1.162,0.483,0.859,0.828,���쓌,1.2,�L
2018/02/05,17:30,0.865,1.445,0.903,1.655,1.161,0.484,0.858,0.830,���쓌,1.7,��
2018/02/05,17:40,0.866,1.446,0.903,1.655,1.159,0.484,0.858,0.828,���쓌,1.5,��
2018/02/05,17:50,0.865,1.444,0.902,1.653,1.160,0.483,0.857,0.830,��,1.5,��
2018/02/05,18:00,0.866,1.445,0.902,1.653,1.158,0.482,0.858,0.829,��,1.2,��
2018/02/05,18:10,0.864,1.443,0.902,1.653,1.161,0.482,0.855,0.830,-,CALM,��
2018/02/05,18:20,0.864,1.442,0.902,1.651,1.160,0.483,0.857,0.828,���쐼,0.9,��
2018/02/05,18:30,0.862,1.442,0.902,1.656,1.158,0.482,0.856,0.828,�쐼,1.4,��
2018/02/05,18:40,0.865,1.442,0.903,1.653,1.157,0.482,0.857,0.829,�쐼,1.8,��
2018/02/05,18:50,0.865,1.442,0.902,1.656,1.160,0.481,0.856,0.830,�쐼,1.5,��
2018/02/05,19:00,0.866,1.440,0.903,1.654,1.159,0.482,0.856,0.826,���쐼,1.5,��
2018/02/05,19:10,0.864,1.442,0.903,1.651,1.159,0.482,0.855,0.829,��,0.9,��
2018/02/05,19:20,0.863,1.442,0.901,1.655,1.158,0.481,0.856,0.828,���쐼,0.9,��
2018/02/05,19:30,0.867,1.443,0.903,1.656,1.158,0.482,0.857,0.829,��,0.9,��
2018/02/05,19:40,0.863,1.441,0.901,1.653,1.159,0.483,0.857,0.828,��,0.8,��
2018/02/05,19:50,0.863,1.441,0.901,1.651,1.158,0.481,0.857,0.829,��,1.1,��
2018/02/05,20:00,0.863,1.440,0.902,1.654,1.158,0.482,0.856,0.829,��,0.9,��
2018/02/05,20:10,0.865,1.441,0.902,1.651,1.160,0.482,0.857,0.827,��,1.1,��
2018/02/05,20:20,0.864,1.443,0.901,1.651,1.158,0.481,0.857,0.829,�쐼,1.2,��
2018/02/05,20:30,0.864,1.439,0.903,1.656,1.160,0.482,0.856,0.830,���쐼,1.7,��
2018/02/05,20:40,0.863,1.441,0.901,1.653,1.159,0.482,0.857,0.830,���k��,1.7,��
2018/02/05,20:50,0.865,1.441,0.902,1.653,1.160,0.482,0.857,0.830,���k��,2.6,��
2018/02/05,21:00,0.866,1.442,0.901,1.652,1.158,0.482,0.856,0.829,�쓌,1.5,��
2018/02/05,21:10,0.865,1.441,0.900,1.653,1.156,0.481,0.858,0.828,�쓌,0.6,�L
2018/02/05,21:20,0.864,1.439,0.901,1.655,1.157,0.481,0.858,0.829,��,1.1,�L
2018/02/05,21:30,0.866,1.441,0.900,1.654,1.155,0.484,0.857,0.827,��,1.1,�L
2018/02/05,21:40,0.865,1.443,0.901,1.651,1.158,0.483,0.857,0.830,-,CALM,�L
2018/02/05,21:50,0.865,1.442,0.904,1.655,1.158,0.484,0.856,0.828,�k��,0.6,�L
2018/02/05,22:00,0.865,1.441,0.903,1.657,1.158,0.484,0.856,0.827,�k�k��,1.1,��
2018/02/05,22:10,0.864,1.438,0.901,1.654,1.158,0.484,0.857,0.830,�k,1.5,��
2018/02/05,22:20,0.865,1.442,0.903,1.653,1.158,0.482,0.856,0.828,�k�k��,1.7,��
2018/02/05,22:30,0.864,1.442,0.903,1.652,1.158,0.482,0.856,0.828,�k�k��,1.5,��
2018/02/05,22:40,0.865,1.440,0.903,1.653,1.157,0.483,0.856,0.826,�k,1.5,��
2018/02/05,22:50,0.864,1.440,0.902,1.653,1.159,0.483,0.855,0.827,�k�k��,1.9,��
2018/02/05,23:00,0.865,1.441,0.902,1.654,1.159,0.481,0.855,0.827,�k��,2.5,��
2018/02/05,23:10,0.864,1.443,0.903,1.654,1.156,0.483,0.857,0.828,�k��,3.5,��
2018/02/05,23:20,0.864,1.440,0.903,1.654,1.155,0.483,0.857,0.829,�k��,4.2,��
2018/02/05,23:30,0.865,1.439,0.902,1.655,1.157,0.481,0.856,0.828,���k��,5.5,��
2018/02/05,23:40,0.864,1.438,0.903,1.654,1.157,0.484,0.856,0.828,���k��,5.7,��
2018/02/05,23:50,0.862,1.439,0.902,1.653,1.157,0.482,0.856,0.828,�k��,5.8,��
